| time (UTC) | temp C | wind direction | speed KPH | gust KPH | rain 1hr cm | rain 24hr cm | rain mn cm | humidity % | barometer mb |
| 20260509201530 | 12 | 34 | 3.2 | 6.4 | 0.00 | 0.00 | 0.00 | 54 | 1020.9 |
| 20260509200032 | 12 | 30 | 0.0 | 8.0 | 0.00 | 0.00 | 0.00 | 54 | 1020.7 |
| 20260509194532 | 12 | 47 | 3.2 | 6.4 | 0.00 | 0.00 | 0.00 | 54 | 1020.5 |
| 20260509193032 | 12 | 45 | 1.6 | 4.8 | 0.00 | 0.00 | 0.00 | 54 | 1020.0 |
| 20260509191529 | 12 | 20 | 3.2 | 9.7 | 0.00 | 0.00 | 0.00 | 51 | 1019.6 |
| 20260509190042 | 12 | 354 | 3.2 | 6.4 | 0.00 | 0.00 | 0.00 | 50 | 1019.5 |
| 20260509184536 | 13 | 338 | 1.6 | 6.4 | 0.00 | 0.00 | 0.00 | 48 | 1019.3 |
| 20260509183039 | 13 | 323 | 3.2 | 8.0 | 0.00 | 0.00 | 0.00 | 47 | 1019.3 |
| 20260509181531 | 13 | 6 | 4.8 | 8.0 | 0.00 | 0.00 | 0.00 | 46 | 1019.2 |
| 20260509180031 | 13 | 286 | 1.6 | 8.0 | 0.00 | 0.00 | 0.00 | 46 | 1019.1 |
| 20260509174528 | 13 | 309 | 3.2 | 6.4 | 0.00 | 0.00 | 0.00 | 46 | 1018.8 |
| 20260509173045 | 13 | 304 | 3.2 | 9.7 | 0.00 | 0.00 | 0.00 | 46 | 1018.8 |
| 20260509171541 | 14 | 308 | 4.8 | 6.4 | 0.00 | 0.00 | 0.00 | 46 | 1018.7 |
| 20260509170036 | 14 | 324 | 3.2 | 6.4 | 0.00 | 0.00 | 0.00 | 46 | 1018.7 |
| 20260509164536 | 14 | 306 | 3.2 | 6.4 | 0.00 | 0.00 | 0.00 | 45 | 1018.6 |
| 20260509163029 | 14 | 321 | 1.6 | 8.0 | 0.00 | 0.00 | 0.00 | 46 | 1018.5 |
| 20260509161530 | 14 | 333 | 1.6 | 6.4 | 0.00 | 0.00 | 0.00 | 46 | 1018.4 |
| 20260509160032 | 14 | 353 | 1.6 | 4.8 | 0.00 | 0.00 | 0.00 | 46 | 1018.4 |
| 20260509154529 | 14 | 356 | 1.6 | 3.2 | 0.00 | 0.00 | 0.00 | 46 | 1018.4 |
| 20260509153033 | 13 | 10 | 0.0 | 3.2 | 0.00 | 0.00 | 0.00 | 47 | 1018.4 |
| 20260509151535 | 14 | 349 | 0.0 | 1.6 | 0.00 | 0.00 | 0.00 | 47 | 1018.6 |
| 20260509150031 | 15 | 0 | 0.0 | 3.2 | 0.00 | 0.00 | 0.00 | 44 | 1018.4 |
| 20260509144530 | 15 | 266 | 0.0 | 6.4 | 0.00 | 0.00 | 0.00 | 43 | 1018.3 |
| 20260509143030 | 15 | 277 | 1.6 | 4.8 | 0.00 | 0.00 | 0.00 | 42 | 1018.1 |
| 20260509141536 | 15 | 319 | 1.6 | 6.4 | 0.00 | 0.00 | 0.00 | 41 | 1018.0 |
| 20260509140035 | 15 | 286 | 3.2 | 9.7 | 0.00 | 0.00 | 0.00 | 40 | 1017.8 |
| 20260509134538 | 15 | 339 | 0.0 | 6.4 | 0.00 | 0.00 | 0.00 | 40 | 1017.8 |
| 20260509133034 | 16 | 338 | 1.6 | 9.7 | 0.00 | 0.00 | 0.00 | 38 | 1017.7 |
| 20260509131550 | 16 | 338 | 3.2 | 9.7 | 0.00 | 0.00 | 0.00 | 36 | 1017.6 |
| 20260509130043 | 16 | 314 | 1.6 | 9.7 | 0.00 | 0.00 | 0.00 | 35 | 1017.5 |
| 20260509124539 | 16 | 237 | 0.0 | 1.6 | 0.00 | 0.00 | 0.00 | 34 | 1017.4 |
| 20260509123033 | 17 | 233 | 0.0 | 6.4 | 0.00 | 0.00 | 0.00 | 32 | 1017.3 |
| 20260509121530 | 17 | 0 | 0.0 | 8.0 | 0.00 | 0.00 | 0.00 | 32 | 1017.1 |
| 20260509120032 | 17 | 264 | 0.0 | 4.8 | 0.00 | 0.00 | 0.00 | 31 | 1017.0 |
| 20260509114531 | 17 | 294 | 1.6 | 4.8 | 0.00 | 0.00 | 0.00 | 30 | 1016.8 |
| 20260509113028 | 17 | 273 | 1.6 | 9.7 | 0.00 | 0.00 | 0.00 | 29 | 1016.7 |
| 20260509111532 | 17 | 331 | 3.2 | 8.0 | 0.00 | 0.00 | 0.00 | 29 | 1016.3 |
| 20260509110029 | 17 | 305 | 3.2 | 6.4 | 0.00 | 0.00 | 0.00 | 29 | 1016.2 |
| 20260509104530 | 18 | 314 | 0.0 | 1.6 | 0.00 | 0.00 | 0.00 | 30 | 1016.1 |
| 20260509103030 | 18 | 8 | 0.0 | 3.2 | 0.00 | 0.00 | 0.00 | 28 | 1015.9 |
| 20260509101532 | 18 | 337 | 1.6 | 6.4 | 0.00 | 0.00 | 0.00 | 28 | 1015.2 |
| 20260509100035 | 18 | 296 | 3.2 | 11.3 | 0.00 | 0.00 | 0.00 | 28 | 1015.3 |
| 20260509094530 | 19 | 342 | 1.6 | 9.7 | 0.00 | 0.00 | 0.00 | 26 | 1015.2 |
| 20260509093030 | 20 | 1 | 1.6 | 16.1 | 0.00 | 0.00 | 0.00 | 26 | 1015.0 |
| 20260509091531 | 20 | 322 | 6.4 | 17.7 | 0.00 | 0.00 | 0.00 | 25 | 1014.6 |
| 20260509090035 | 20 | 17 | 6.4 | 24.1 | 0.00 | 0.00 | 0.00 | 25 | 1014.2 |
| 20260509084535 | 21 | 357 | 11.3 | 20.9 | 0.00 | 0.00 | 0.00 | 24 | 1013.8 |
| 20260509083031 | 21 | 348 | 4.8 | 24.1 | 0.00 | 0.00 | 0.00 | 24 | 1013.6 |
| 20260509081539 | 21 | 321 | 8.0 | 25.7 | 0.00 | 0.00 | 0.00 | 25 | 1013.5 |
| 20260509080027 | 21 | 352 | 12.9 | 27.4 | 0.00 | 0.00 | 0.00 | 23 | 1013.1 |
| 20260509074531 | 21 | 339 | 12.9 | 29.0 | 0.00 | 0.00 | 0.00 | 24 | 1013.1 |
| 20260509073028 | 21 | 4 | 11.3 | 30.6 | 0.00 | 0.00 | 0.00 | 23 | 1012.5 |
| 20260509071528 | 22 | 309 | 16.1 | 35.4 | 0.00 | 0.00 | 0.00 | 23 | 1012.2 |
| 20260509070028 | 22 | 305 | 17.7 | 29.0 | 0.00 | 0.00 | 0.00 | 24 | 1012.1 |
| 20260509064532 | 22 | 2 | 16.1 | 30.6 | 0.00 | 0.00 | 0.00 | 25 | 1011.7 |
| 20260509063031 | 22 | 1 | 14.5 | 33.8 | 0.00 | 0.00 | 0.00 | 26 | 1011.9 |
| 20260509061530 | 22 | 357 | 17.7 | 32.2 | 0.00 | 0.00 | 0.00 | 26 | 1011.8 |
| 20260509060032 | 21 | 354 | 24.1 | 43.5 | 0.00 | 0.00 | 0.00 | 26 | 1011.4 |
| 20260509054540 | 22 | 7 | 19.3 | 40.2 | 0.00 | 0.00 | 0.00 | 27 | 1011.2 |
| 20260509053106 | 21 | 329 | 27.4 | 48.3 | 0.00 | 0.00 | 0.00 | 28 | 1011.5 |
| 20260509051529 | 21 | 324 | 17.7 | 37.0 | 0.00 | 0.00 | 0.00 | 28 | 1011.8 |
| 20260509050040 | 21 | 352 | 14.5 | 37.0 | 0.00 | 0.00 | 0.00 | 29 | 1012.4 |
| 20260509044530 | 21 | 321 | 16.1 | 40.2 | 0.00 | 0.00 | 0.00 | 30 | 1012.4 |
| 20260509043030 | 21 | 355 | 20.9 | 33.8 | 0.00 | 0.00 | 0.00 | 30 | 1012.8 |
| 20260509041532 | 21 | 349 | 19.3 | 37.0 | 0.00 | 0.00 | 0.00 | 31 | 1012.7 |
| 20260509040029 | 20 | 337 | 17.7 | 40.2 | 0.00 | 0.00 | 0.00 | 31 | 1012.7 |
| 20260509034530 | 20 | 349 | 20.9 | 40.2 | 0.00 | 0.00 | 0.00 | 33 | 1012.8 |
| 20260509033028 | 20 | 304 | 20.9 | 45.1 | 0.00 | 0.00 | 0.00 | 34 | 1012.7 |
| 20260509031532 | 20 | 335 | 16.1 | 38.6 | 0.00 | 0.00 | 0.00 | 34 | 1012.7 |
| 20260509030034 | 20 | 308 | 16.1 | 43.5 | 0.00 | 0.00 | 0.00 | 36 | 1012.7 |
| 20260509024531 | 20 | 335 | 17.7 | 43.5 | 0.00 | 0.00 | 0.00 | 37 | 1012.5 |
| 20260509023040 | 20 | 335 | 22.5 | 37.0 | 0.00 | 0.00 | 0.00 | 37 | 1012.7 |
| 20260509021528 | 20 | 1 | 20.9 | 41.8 | 0.00 | 0.00 | 0.00 | 37 | 1012.7 |
| 20260509020030 | 19 | 283 | 20.9 | 38.6 | 0.00 | 0.00 | 0.00 | 37 | 1012.5 |
| 20260509014537 | 19 | 340 | 17.7 | 41.8 | 0.00 | 0.00 | 0.00 | 37 | 1012.5 |
| 20260509013030 | 19 | 300 | 22.5 | 41.8 | 0.00 | 0.00 | 0.00 | 38 | 1012.5 |
| 20260509011534 | 19 | 320 | 20.9 | 40.2 | 0.00 | 0.00 | 0.00 | 38 | 1012.5 |
| 20260509010030 | 19 | 322 | 19.3 | 48.3 | 0.00 | 0.00 | 0.00 | 39 | 1012.2 |
| 20260509004533 | 19 | 342 | 24.1 | 40.2 | 0.00 | 0.00 | 0.00 | 38 | 1012.1 |
| 20260509003044 | 20 | 267 | 16.1 | 35.4 | 0.00 | 0.00 | 0.00 | 36 | 1011.5 |
| 20260509001530 | 20 | 323 | 16.1 | 32.2 | 0.00 | 0.00 | 0.00 | 34 | 1011.3 |
| 20260509000029 | 20 | 304 | 14.5 | 29.0 | 0.00 | 0.00 | 0.00 | 33 | 1011.0 |
| 20260508234532 | 19 | 332 | 16.1 | 29.0 | 0.00 | 0.00 | 0.00 | 33 | 1010.6 |
| 20260508233028 | 18 | 277 | 19.3 | 29.0 | 0.00 | 0.00 | 0.00 | 33 | 1010.8 |
| 20260508231528 | 18 | 326 | 14.5 | 32.2 | 0.00 | 0.00 | 0.00 | 35 | 1010.3 |
| 20260508230033 | 18 | 304 | 11.3 | 25.7 | 0.00 | 0.00 | 0.00 | 35 | 1010.0 |
| 20260508224531 | 18 | 319 | 11.3 | 25.7 | 0.00 | 0.00 | 0.00 | 35 | 1009.9 |
| 20260508223031 | 17 | 16 | 14.5 | 27.4 | 0.00 | 0.00 | 0.00 | 37 | 1009.6 |
| 20260508221529 | 17 | 319 | 12.9 | 29.0 | 0.00 | 0.00 | 0.00 | 37 | 1009.3 |
| 20260508220028 | 17 | 16 | 9.7 | 27.4 | 0.00 | 0.00 | 0.00 | 37 | 1008.9 |
| 20260508214532 | 16 | 18 | 12.9 | 22.5 | 0.00 | 0.00 | 0.00 | 37 | 1008.5 |
| 20260508213029 | 16 | 309 | 11.3 | 25.7 | 0.00 | 0.00 | 0.00 | 37 | 1008.1 |
| 20260508211531 | 16 | 330 | 11.3 | 22.5 | 0.00 | 0.00 | 0.00 | 36 | 1007.9 |
| 20260508210033 | 16 | 53 | 6.4 | 22.5 | 0.00 | 0.00 | 0.00 | 34 | 1007.6 |
| 20260508204528 | 16 | 328 | 12.9 | 22.5 | 0.00 | 0.00 | 0.00 | 33 | 1007.3 |
| 20260508203028 | 16 | 302 | 11.3 | 24.1 | 0.00 | 0.00 | 0.00 | 33 | 1007.2 |